Météo par heure à Warwick

Ce jour, 29 Septembre, Mardi

Heure Température Précipitation Vent Pression Humidité
00:00 +15°C° 0 mm 2 m/s 755 mmHg 94%
01:00 +14°C° 0 mm 2 m/s 755 mmHg 93%
02:00 +14°C° 0 mm 2 m/s 755 mmHg 92%
03:00 +13°C° 0 mm 2 m/s 755 mmHg 91%
04:00 +13°C° 0 mm 2 m/s 755 mmHg 90%
05:00 +13°C° 0 mm 2 m/s 755 mmHg 90%
06:00 +12°C° 0 mm 2 m/s 756 mmHg 90%
07:00 +13°C° 0 mm 2 m/s 756 mmHg 86%
08:00 +14°C° 0 mm 2 m/s 756 mmHg 82%
09:00 +13°C° 0 mm 3 m/s 756 mmHg 79%
10:00 +15°C° 0 mm 2 m/s 756 mmHg 73%
11:00 +16°C° 0 mm 2 m/s 756 mmHg 67%
12:00 +17°C° 0 mm 2 m/s 757 mmHg 61%
13:00 +17°C° 0 mm 2 m/s 756 mmHg 58%
14:00 +17°C° 0 mm 2 m/s 756 mmHg 55%
15:00 +19°C° 0 mm 1 m/s 755 mmHg 52%
16:00 +18°C° 0 mm 1 m/s 755 mmHg 55%
17:00 +16°C° 0 mm 1 m/s 755 mmHg 58%
18:00 +15°C° 0 mm 1 m/s 755 mmHg 61%
19:00 +14°C° 0 mm 1 m/s 755 mmHg 64%
20:00 +14°C° 0 mm 1 m/s 755 mmHg 67%
21:00 +13°C° 0 mm 2 m/s 755 mmHg 70%
22:00 +13°C° 0 mm 2 m/s 755 mmHg 71%
23:00 +13°C° 0 mm 2 m/s 754 mmHg 72%

Demain, 30 Septembre, Mercredi

Heure Température Précipitation Vent Pression Humidité
00:00 +13°C° 0 mm 2 m/s 754 mmHg 74%
01:00 +12°C° 0 mm 2 m/s 753 mmHg 76%
02:00 +10°C° 0 mm 2 m/s 753 mmHg 78%
03:00 +10°C° 0 mm 2 m/s 752 mmHg 80%
04:00 +9°C° 0 mm 3 m/s 752 mmHg 80%
05:00 +9°C° 0 mm 3 m/s 751 mmHg 81%
06:00 +9°C° 0 mm 3 m/s 751 mmHg 82%
07:00 +10°C° 0.1 mm 4 m/s 750 mmHg 81%
08:00 +10°C° 0.1 mm 5 m/s 750 mmHg 80%
09:00 +11°C° 0.1 mm 6 m/s 750 mmHg 80%
10:00 +11°C° 0.2 mm 6 m/s 749 mmHg 81%
11:00 +11°C° 0.2 mm 6 m/s 748 mmHg 83%
12:00 +11°C° 0.2 mm 6 m/s 747 mmHg 84%
13:00 +12°C° 0.3 mm 7 m/s 746 mmHg 85%
14:00 +12°C° 0.3 mm 7 m/s 745 mmHg 86%
15:00 +12°C° 0.3 mm 7 m/s 744 mmHg 87%
16:00 +13°C° 1.2 mm 6 m/s 744 mmHg 88%
17:00 +13°C° 1.2 mm 6 m/s 744 mmHg 89%
18:00 +13°C° 1.2 mm 5 m/s 743 mmHg 91%
19:00 +12°C° 0.1 mm 5 m/s 743 mmHg 91%
20:00 +10°C° 0.1 mm 5 m/s 743 mmHg 91%
21:00 +10°C° 0.1 mm 5 m/s 744 mmHg 91%
22:00 +9°C° 0 mm 5 m/s 744 mmHg 92%
23:00 +9°C° 0 mm 5 m/s 744 mmHg 92%

Après-demain, 1 Octobre, Jeudi

Heure Température Précipitation Vent Pression Humidité
00:00 +8°C° 0 mm 5 m/s 744 mmHg 92%
01:00 +8°C° 0 mm 4 m/s 744 mmHg 92%
02:00 +7°C° 0 mm 4 m/s 744 mmHg 92%
03:00 +7°C° 0 mm 4 m/s 744 mmHg 93%
04:00 +7°C° 0 mm 4 m/s 744 mmHg 92%
05:00 +8°C° 0 mm 3 m/s 744 mmHg 92%
06:00 +8°C° 0 mm 3 m/s 744 mmHg 91%
07:00 +9°C° 0 mm 3 m/s 744 mmHg 87%
08:00 +9°C° 0 mm 3 m/s 744 mmHg 82%
09:00 +10°C° 0 mm 3 m/s 744 mmHg 77%
10:00 +11°C° 0.1 mm 3 m/s 744 mmHg 71%
11:00 +12°C° 0.1 mm 3 m/s 744 mmHg 66%
12:00 +12°C° 0.1 mm 3 m/s 744 mmHg 60%
13:00 +13°C° 0.1 mm 3 m/s 743 mmHg 58%
14:00 +13°C° 0.1 mm 3 m/s 743 mmHg 57%
15:00 +13°C° 0.1 mm 3 m/s 743 mmHg 55%
16:00 +12°C° 0 mm 3 m/s 742 mmHg 61%
17:00 +12°C° 0 mm 2 m/s 742 mmHg 66%
18:00 +9°C° 0 mm 2 m/s 742 mmHg 72%
19:00 +9°C° 0.1 mm 2 m/s 742 mmHg 75%
20:00 +9°C° 0.1 mm 2 m/s 741 mmHg 78%
21:00 +8°C° 0.1 mm 2 m/s 741 mmHg 82%
22:00 +8°C° 0 mm 3 m/s 741 mmHg 82%
23:00 +8°C° 0 mm 3 m/s 741 mmHg 83%

2 Octobre, Vendredi

Heure Température Précipitation Vent Pression Humidité
00:00 +7°C° 0 mm 3 m/s 740 mmHg 84%
01:00 +8°C° 0 mm 3 m/s 740 mmHg 83%
02:00 +7°C° 0 mm 4 m/s 740 mmHg 83%
03:00 +7°C° 0 mm 4 m/s 740 mmHg 83%
04:00 +7°C° 0 mm 4 m/s 740 mmHg 83%
05:00 +7°C° 0 mm 4 m/s 740 mmHg 84%
06:00 +7°C° 0 mm 4 m/s 740 mmHg 85%
07:00 +8°C° 0 mm 5 m/s 740 mmHg 83%
08:00 +9°C° 0 mm 5 m/s 740 mmHg 80%
09:00 +10°C° 0 mm 6 m/s 740 mmHg 78%
10:00 +10°C° 0.2 mm 6 m/s 740 mmHg 80%
11:00 +10°C° 0.2 mm 7 m/s 740 mmHg 82%
12:00 +10°C° 0.2 mm 8 m/s 740 mmHg 84%
13:00 +11°C° 0.2 mm 7 m/s 740 mmHg 82%
14:00 +11°C° 0.2 mm 7 m/s 740 mmHg 80%
15:00 +13°C° 0.2 mm 6 m/s 740 mmHg 78%
16:00 +11°C° 0.4 mm 7 m/s 740 mmHg 82%
17:00 +11°C° 0.4 mm 7 m/s 740 mmHg 86%
18:00 +11°C° 0.4 mm 8 m/s 740 mmHg 90%
19:00 +11°C° 0.3 mm 8 m/s 741 mmHg 90%
20:00 +11°C° 0.3 mm 8 m/s 741 mmHg 89%
21:00 +12°C° 0.3 mm 8 m/s 741 mmHg 89%
22:00 +12°C° 0.3 mm 8 m/s 741 mmHg 90%
23:00 +12°C° 0.3 mm 8 m/s 741 mmHg 91%

3 Octobre, Samedi

Heure Température Précipitation Vent Pression Humidité
00:00 +12°C° 0.3 mm 8 m/s 741 mmHg 92%
01:00 +12°C° 0.5 mm 8 m/s 740 mmHg 92%
02:00 +12°C° 0.5 mm 8 m/s 740 mmHg 92%
03:00 +12°C° 0.5 mm 8 m/s 740 mmHg 92%
04:00 +12°C° 0.2 mm 8 m/s 740 mmHg 91%
05:00 +12°C° 0.2 mm 7 m/s 740 mmHg 90%
06:00 +14°C° 0.2 mm 7 m/s 740 mmHg 89%
07:00 +14°C° 0.2 mm 7 m/s 739 mmHg 89%
08:00 +14°C° 0.2 mm 7 m/s 739 mmHg 89%
09:00 +14°C° 0.2 mm 7 m/s 739 mmHg 88%
10:00 +14°C° 0.3 mm 6 m/s 739 mmHg 87%
11:00 +14°C° 0.3 mm 6 m/s 739 mmHg 86%
12:00 +15°C° 0.3 mm 6 m/s 738 mmHg 84%
13:00 +14°C° 1.5 mm 5 m/s 738 mmHg 87%
14:00 +13°C° 1.5 mm 4 m/s 737 mmHg 90%
15:00 +12°C° 1.5 mm 4 m/s 737 mmHg 93%
16:00 +12°C° 1.4 mm 4 m/s 737 mmHg 93%
17:00 +11°C° 1.4 mm 4 m/s 736 mmHg 93%
18:00 +11°C° 1.4 mm 4 m/s 736 mmHg 93%
19:00 +11°C° 0.3 mm 4 m/s 735 mmHg 92%
20:00 +10°C° 0.3 mm 4 m/s 735 mmHg 92%
21:00 +10°C° 0.3 mm 3 m/s 735 mmHg 91%
22:00 +9°C° 0 mm 3 m/s 734 mmHg 91%
23:00 +9°C° 0 mm 3 m/s 734 mmHg 91%

4 Octobre, Dimanche

Heure Température Précipitation Vent Pression Humidité
00:00 +8°C° 0 mm 3 m/s 733 mmHg 92%
01:00 +8°C° 0 mm 3 m/s 733 mmHg 92%
02:00 +7°C° 0 mm 3 m/s 732 mmHg 92%
03:00 +7°C° 0 mm 2 m/s 732 mmHg 92%
04:00 +7°C° 0 mm 2 m/s 732 mmHg 93%
05:00 +7°C° 0 mm 2 m/s 732 mmHg 93%
06:00 +7°C° 0 mm 2 m/s 732 mmHg 93%
07:00 +8°C° 0 mm 2 m/s 732 mmHg 91%
08:00 +9°C° 0 mm 2 m/s 731 mmHg 90%
09:00 +10°C° 0 mm 3 m/s 731 mmHg 88%
10:00 +11°C° 0.1 mm 3 m/s 731 mmHg 85%
11:00 +12°C° 0.1 mm 3 m/s 732 mmHg 82%
12:00 +12°C° 0.1 mm 3 m/s 732 mmHg 78%
13:00 +12°C° 0.1 mm 3 m/s 731 mmHg 80%
14:00 +12°C° 0.1 mm 3 m/s 731 mmHg 82%
15:00 +12°C° 0.1 mm 3 m/s 731 mmHg 84%
16:00 +11°C° 0.1 mm 3 m/s 731 mmHg 87%
17:00 +12°C° 0.1 mm 2 m/s 731 mmHg 90%
18:00 +10°C° 0.1 mm 2 m/s 731 mmHg 94%
19:00 +10°C° 0.1 mm 2 m/s 731 mmHg 94%
20:00 +11°C° 0.1 mm 1 m/s 731 mmHg 95%
21:00 +11°C° 0.1 mm 1 m/s 731 mmHg 95%
22:00 +11°C° 0.1 mm 1 m/s 731 mmHg 95%
23:00 +9°C° 0.1 mm 2 m/s 730 mmHg 96%
Voir plus